millis,stamp,datetime,rawPSISensor,voltADC,psig
999, 1556759588, "2019/5/2 1:13:8", 226, 1.10, -0.06
1998, 1556759589, "2019/5/2 1:13:9", 226, 1.10, -0.06
2999, 1556759590, "2019/5/2 1:13:10", 227, 1.11, 0.55
3998, 1556759591, "2019/5/2 1:13:11", 227, 1.11, 0.55
5000, 1556759592, "2019/5/2 1:13:12", 226, 1.10, -0.06
5998, 1556759593, "2019/5/2 1:13:13", 226, 1.10, -0.06
7000, 1556759594, "2019/5/2 1:13:14", 226, 1.10, -0.06
7999, 1556759595, "2019/5/2 1:13:15", 227, 1.11, 0.55
8998, 1556759596, "2019/5/2 1:13:16", 226, 1.10, -0.06
10000, 1556759597, "2019/5/2 1:13:17", 227, 1.11, 0.55
11000, 1556759598, "2019/5/2 1:13:18", 227, 1.11, 0.55
12000, 1556759599, "2019/5/2 1:13:19", 226, 1.10, -0.06
12998, 1556759600, "2019/5/2 1:13:20", 226, 1.10, -0.06
14000, 1556759601, "2019/5/2 1:13:21", 226, 1.10, -0.06
15000, 1556759602, "2019/5/2 1:13:22", 238, 1.16, 7.26
15998, 1556759603, "2019/5/2 1:13:23", 331, 1.62, 64.03
16999, 1556759604, "2019/5/2 1:13:24", 330, 1.61, 63.42
17998, 1556759605, "2019/5/2 1:13:25", 330, 1.61, 63.42
19000, 1556759606, "2019/5/2 1:13:26", 328, 1.60, 62.20
20000, 1556759607, "2019/5/2 1:13:27", 329, 1.61, 62.81
21000, 1556759608, "2019/5/2 1:13:28", 331, 1.62, 64.03
21998, 1556759609, "2019/5/2 1:13:29", 330, 1.61, 63.42
22999, 1556759610, "2019/5/2 1:13:30", 330, 1.61, 63.42
24000, 1556759611, "2019/5/2 1:13:31", 331, 1.62, 64.03
24998, 1556759612, "2019/5/2 1:13:32", 331, 1.62, 64.03
25999, 1556759613, "2019/5/2 1:13:33", 331, 1.62, 64.03
26999, 1556759614, "2019/5/2 1:13:34", 331, 1.62, 64.03
28000, 1556759615, "2019/5/2 1:13:35", 331, 1.62, 64.03
28999, 1556759616, "2019/5/2 1:13:36", 331, 1.62, 64.03
29999, 1556759617, "2019/5/2 1:13:37", 331, 1.62, 64.03
31000, 1556759618, "2019/5/2 1:13:38", 332, 1.62, 64.64
31998, 1556759619, "2019/5/2 1:13:39", 332, 1.62, 64.64
32999, 1556759620, "2019/5/2 1:13:40", 333, 1.63, 65.25
33998, 1556759621, "2019/5/2 1:13:41", 332, 1.62, 64.64
34999, 1556759622, "2019/5/2 1:13:42", 331, 1.62, 64.03
35999, 1556759623, "2019/5/2 1:13:43", 332, 1.62, 64.64
36999, 1556759624, "2019/5/2 1:13:44", 332, 1.62, 64.64
37999, 1556759625, "2019/5/2 1:13:45", 332, 1.62, 64.64
38999, 1556759626, "2019/5/2 1:13:46", 332, 1.62, 64.64
39999, 1556759627, "2019/5/2 1:13:47", 332, 1.62, 64.64
40999, 1556759628, "2019/5/2 1:13:48", 333, 1.63, 65.25
42000, 1556759629, "2019/5/2 1:13:49", 331, 1.62, 64.03
42999, 1556759630, "2019/5/2 1:13:50", 331, 1.62, 64.03
44000, 1556759631, "2019/5/2 1:13:51", 331, 1.62, 64.03
44998, 1556759632, "2019/5/2 1:13:52", 332, 1.62, 64.64
45999, 1556759633, "2019/5/2 1:13:53", 332, 1.62, 64.64
46999, 1556759634, "2019/5/2 1:13:54", 331, 1.62, 64.03
47998, 1556759635, "2019/5/2 1:13:55", 331, 1.62, 64.03
48999, 1556759636, "2019/5/2 1:13:56", 331, 1.62, 64.03
49999, 1556759637, "2019/5/2 1:13:57", 332, 1.62, 64.64
50999, 1556759638, "2019/5/2 1:13:58", 331, 1.62, 64.03
51998, 1556759639, "2019/5/2 1:13:59", 331, 1.62, 64.03
52999, 1556759640, "2019/5/2 1:14:0", 331, 1.62, 64.03
53999, 1556759641, "2019/5/2 1:14:1", 331, 1.62, 64.03
54999, 1556759642, "2019/5/2 1:14:2", 331, 1.62, 64.03
55999, 1556759643, "2019/5/2 1:14:3", 331, 1.62, 64.03
56998, 1556759644, "2019/5/2 1:14:4", 331, 1.62, 64.03
57999, 1556759645, "2019/5/2 1:14:5", 332, 1.62, 64.64
58999, 1556759646, "2019/5/2 1:14:6", 331, 1.62, 64.03
59999, 1556759647, "2019/5/2 1:14:7", 331, 1.62, 64.03
60998, 1556759648, "2019/5/2 1:14:8", 331, 1.62, 64.03
62000, 1556759649, "2019/5/2 1:14:9", 331, 1.62, 64.03
63000, 1556759650, "2019/5/2 1:14:10", 331, 1.62, 64.03
64000, 1556759651, "2019/5/2 1:14:11", 331, 1.62, 64.03
64999, 1556759652, "2019/5/2 1:14:12", 331, 1.62, 64.03
65998, 1556759653, "2019/5/2 1:14:13", 331, 1.62, 64.03
67000, 1556759654, "2019/5/2 1:14:14", 331, 1.62, 64.03
67998, 1556759655, "2019/5/2 1:14:15", 331, 1.62, 64.03
68999, 1556759656, "2019/5/2 1:14:16", 330, 1.61, 63.42
69998, 1556759657, "2019/5/2 1:14:17", 330, 1.61, 63.42
71000, 1556759658, "2019/5/2 1:14:18", 331, 1.62, 64.03
72000, 1556759659, "2019/5/2 1:14:19", 332, 1.62, 64.64
72998, 1556759660, "2019/5/2 1:14:20", 332, 1.62, 64.64
73999, 1556759661, "2019/5/2 1:14:21", 332, 1.62, 64.64
74998, 1556759662, "2019/5/2 1:14:22", 331, 1.62, 64.03
75999, 1556759663, "2019/5/2 1:14:23", 330, 1.61, 63.42
76999, 1556759664, "2019/5/2 1:14:24", 331, 1.62, 64.03
78000, 1556759665, "2019/5/2 1:14:25", 331, 1.62, 64.03
78999, 1556759666, "2019/5/2 1:14:26", 331, 1.62, 64.03
79998, 1556759667, "2019/5/2 1:14:27", 331, 1.62, 64.03
80999, 1556759668, "2019/5/2 1:14:28", 330, 1.61, 63.42
81998, 1556759669, "2019/5/2 1:14:29", 332, 1.62, 64.64
82999, 1556759670, "2019/5/2 1:14:30", 332, 1.62, 64.64
83998, 1556759671, "2019/5/2 1:14:31", 333, 1.63, 65.25
84999, 1556759672, "2019/5/2 1:14:32", 334, 1.63, 65.86
85998, 1556759673, "2019/5/2 1:14:33", 333, 1.63, 65.25
86999, 1556759674, "2019/5/2 1:14:34", 332, 1.62, 64.64
87999, 1556759675, "2019/5/2 1:14:35", 330, 1.61, 63.42
88999, 1556759676, "2019/5/2 1:14:36", 330, 1.61, 63.42
90000, 1556759677, "2019/5/2 1:14:37", 331, 1.62, 64.03
90998, 1556759678, "2019/5/2 1:14:38", 333, 1.63, 65.25
91999, 1556759679, "2019/5/2 1:14:39", 331, 1.62, 64.03
92998, 1556759680, "2019/5/2 1:14:40", 331, 1.62, 64.03
93999, 1556759681, "2019/5/2 1:14:41", 331, 1.62, 64.03
94999, 1556759682, "2019/5/2 1:14:42", 331, 1.62, 64.03
96000, 1556759683, "2019/5/2 1:14:43", 331, 1.62, 64.03
96999, 1556759684, "2019/5/2 1:14:44", 332, 1.62, 64.64
97998, 1556759685, "2019/5/2 1:14:45", 333, 1.63, 65.25
99000, 1556759686, "2019/5/2 1:14:46", 331, 1.62, 64.03
99999, 1556759687, "2019/5/2 1:14:47", 332, 1.62, 64.64
100999, 1556759688, "2019/5/2 1:14:48", 331, 1.62, 64.03
101999, 1556759689, "2019/5/2 1:14:49", 331, 1.62, 64.03
102999, 1556759690, "2019/5/2 1:14:50", 330, 1.61, 63.42
103999, 1556759691, "2019/5/2 1:14:51", 331, 1.62, 64.03
104998, 1556759692, "2019/5/2 1:14:52", 332, 1.62, 64.64
105999, 1556759693, "2019/5/2 1:14:53", 331, 1.62, 64.03
106998, 1556759694, "2019/5/2 1:14:54", 330, 1.61, 63.42
108000, 1556759695, "2019/5/2 1:14:55", 331, 1.62, 64.03
108999, 1556759696, "2019/5/2 1:14:56", 331, 1.62, 64.03
109999, 1556759697, "2019/5/2 1:14:57", 331, 1.62, 64.03
110999, 1556759698, "2019/5/2 1:14:58", 331, 1.62, 64.03
112000, 1556759699, "2019/5/2 1:14:59", 331, 1.62, 64.03
113000, 1556759700, "2019/5/2 1:15:0", 323, 1.58, 59.14
113999, 1556759701, "2019/5/2 1:15:1", 334, 1.63, 65.86
115000, 1556759702, "2019/5/2 1:15:2", 329, 1.61, 62.81
115998, 1556759703, "2019/5/2 1:15:3", 337, 1.65, 67.69
116999, 1556759704, "2019/5/2 1:15:4", 329, 1.61, 62.81
117999, 1556759705, "2019/5/2 1:15:5", 328, 1.60, 62.20
118999, 1556759706, "2019/5/2 1:15:6", 330, 1.61, 63.42
120000, 1556759707, "2019/5/2 1:15:7", 332, 1.62, 64.64
120998, 1556759708, "2019/5/2 1:15:8", 332, 1.62, 64.64
121999, 1556759709, "2019/5/2 1:15:9", 331, 1.62, 64.03
122999, 1556759710, "2019/5/2 1:15:10", 330, 1.61, 63.42
124000, 1556759711, "2019/5/2 1:15:11", 331, 1.62, 64.03
124999, 1556759712, "2019/5/2 1:15:12", 331, 1.62, 64.03
125999, 1556759713, "2019/5/2 1:15:13", 331, 1.62, 64.03
126999, 1556759714, "2019/5/2 1:15:14", 331, 1.62, 64.03
127998, 1556759715, "2019/5/2 1:15:15", 332, 1.62, 64.64
128999, 1556759716, "2019/5/2 1:15:16", 331, 1.62, 64.03
129999, 1556759717, "2019/5/2 1:15:17", 331, 1.62, 64.03
130999, 1556759718, "2019/5/2 1:15:18", 331, 1.62, 64.03
131999, 1556759719, "2019/5/2 1:15:19", 332, 1.62, 64.64
133000, 1556759720, "2019/5/2 1:15:20", 331, 1.62, 64.03
133999, 1556759721, "2019/5/2 1:15:21", 331, 1.62, 64.03
134999, 1556759722, "2019/5/2 1:15:22", 331, 1.62, 64.03
135999, 1556759723, "2019/5/2 1:15:23", 331, 1.62, 64.03
136998, 1556759724, "2019/5/2 1:15:24", 331, 1.62, 64.03
138000, 1556759725, "2019/5/2 1:15:25", 331, 1.62, 64.03
138998, 1556759726, "2019/5/2 1:15:26", 331, 1.62, 64.03
139999, 1556759727, "2019/5/2 1:15:27", 332, 1.62, 64.64
140999, 1556759728, "2019/5/2 1:15:28", 332, 1.62, 64.64
141999, 1556759729, "2019/5/2 1:15:29", 332, 1.62, 64.64
142999, 1556759730, "2019/5/2 1:15:30", 333, 1.63, 65.25
144000, 1556759731, "2019/5/2 1:15:31", 334, 1.63, 65.86
144999, 1556759732, "2019/5/2 1:15:32", 332, 1.62, 64.64
145998, 1556759733, "2019/5/2 1:15:33", 332, 1.62, 64.64
147000, 1556759734, "2019/5/2 1:15:34", 331, 1.62, 64.03
147998, 1556759735, "2019/5/2 1:15:35", 324, 1.58, 59.75
148999, 1556759736, "2019/5/2 1:15:36", 331, 1.62, 64.03
149999, 1556759737, "2019/5/2 1:15:37", 330, 1.61, 63.42
151000, 1556759738, "2019/5/2 1:15:38", 334, 1.63, 65.86
151999, 1556759739, "2019/5/2 1:15:39", 334, 1.63, 65.86
152998, 1556759740, "2019/5/2 1:15:40", 331, 1.62, 64.03
153999, 1556759741, "2019/5/2 1:15:41", 330, 1.61, 63.42
154998, 1556759742, "2019/5/2 1:15:42", 330, 1.61, 63.42
155999, 1556759743, "2019/5/2 1:15:43", 331, 1.62, 64.03
156999, 1556759744, "2019/5/2 1:15:44", 332, 1.62, 64.64
158000, 1556759745, "2019/5/2 1:15:45", 331, 1.62, 64.03
159000, 1556759746, "2019/5/2 1:15:46", 331, 1.62, 64.03
160000, 1556759747, "2019/5/2 1:15:47", 331, 1.62, 64.03
160999, 1556759748, "2019/5/2 1:15:48", 331, 1.62, 64.03
161999, 1556759749, "2019/5/2 1:15:49", 331, 1.62, 64.03
162999, 1556759750, "2019/5/2 1:15:50", 331, 1.62, 64.03
163999, 1556759751, "2019/5/2 1:15:51", 331, 1.62, 64.03
165000, 1556759752, "2019/5/2 1:15:52", 331, 1.62, 64.03
166000, 1556759753, "2019/5/2 1:15:53", 331, 1.62, 64.03
167000, 1556759754, "2019/5/2 1:15:54", 332, 1.62, 64.64
167999, 1556759755, "2019/5/2 1:15:55", 332, 1.62, 64.64
168998, 1556759756, "2019/5/2 1:15:56", 332, 1.62, 64.64
170000, 1556759757, "2019/5/2 1:15:57", 334, 1.63, 65.86
170999, 1556759758, "2019/5/2 1:15:58", 331, 1.62, 64.03
171999, 1556759759, "2019/5/2 1:15:59", 331, 1.62, 64.03
172998, 1556759760, "2019/5/2 1:16:0", 331, 1.62, 64.03
174000, 1556759761, "2019/5/2 1:16:1", 331, 1.62, 64.03
174999, 1556759762, "2019/5/2 1:16:2", 332, 1.62, 64.64
176000, 1556759763, "2019/5/2 1:16:3", 331, 1.62, 64.03
177000, 1556759764, "2019/5/2 1:16:4", 331, 1.62, 64.03
178000, 1556759765, "2019/5/2 1:16:5", 331, 1.62, 64.03
178999, 1556759766, "2019/5/2 1:16:6", 331, 1.62, 64.03
179999, 1556759767, "2019/5/2 1:16:7", 332, 1.62, 64.64
180999, 1556759768, "2019/5/2 1:16:8", 333, 1.63, 65.25
181998, 1556759769, "2019/5/2 1:16:9", 331, 1.62, 64.03
182999, 1556759770, "2019/5/2 1:16:10", 332, 1.62, 64.64
183999, 1556759771, "2019/5/2 1:16:11", 332, 1.62, 64.64
184998, 1556759772, "2019/5/2 1:16:12", 331, 1.62, 64.03
185999, 1556759773, "2019/5/2 1:16:13", 332, 1.62, 64.64
186999, 1556759774, "2019/5/2 1:16:14", 331, 1.62, 64.03
188000, 1556759775, "2019/5/2 1:16:15", 328, 1.60, 62.20
188999, 1556759776, "2019/5/2 1:16:16", 331, 1.62, 64.03
189999, 1556759777, "2019/5/2 1:16:17", 331, 1.62, 64.03
191000, 1556759778, "2019/5/2 1:16:18", 332, 1.62, 64.64
192000, 1556759779, "2019/5/2 1:16:19", 331, 1.62, 64.03
192999, 1556759780, "2019/5/2 1:16:20", 331, 1.62, 64.03
193999, 1556759781, "2019/5/2 1:16:21", 331, 1.62, 64.03
195000, 1556759782, "2019/5/2 1:16:22", 332, 1.62, 64.64
195999, 1556759783, "2019/5/2 1:16:23", 329, 1.61, 62.81
197000, 1556759784, "2019/5/2 1:16:24", 332, 1.62, 64.64
197999, 1556759785, "2019/5/2 1:16:25", 331, 1.62, 64.03
198999, 1556759786, "2019/5/2 1:16:26", 331, 1.62, 64.03
199999, 1556759787, "2019/5/2 1:16:27", 331, 1.62, 64.03
200999, 1556759788, "2019/5/2 1:16:28", 331, 1.62, 64.03
202000, 1556759789, "2019/5/2 1:16:29", 331, 1.62, 64.03
202999, 1556759790, "2019/5/2 1:16:30", 331, 1.62, 64.03
204000, 1556759791, "2019/5/2 1:16:31", 331, 1.62, 64.03
204999, 1556759792, "2019/5/2 1:16:32", 331, 1.62, 64.03
206000, 1556759793, "2019/5/2 1:16:33", 331, 1.62, 64.03
206999, 1556759794, "2019/5/2 1:16:34", 331, 1.62, 64.03
207998, 1556759795, "2019/5/2 1:16:35", 331, 1.62, 64.03
208999, 1556759796, "2019/5/2 1:16:36", 331, 1.62, 64.03
209999, 1556759797, "2019/5/2 1:16:37", 331, 1.62, 64.03
211000, 1556759798, "2019/5/2 1:16:38", 331, 1.62, 64.03
211999, 1556759799, "2019/5/2 1:16:39", 329, 1.61, 62.81
213000, 1556759800, "2019/5/2 1:16:40", 331, 1.62, 64.03
213999, 1556759801, "2019/5/2 1:16:41", 331, 1.62, 64.03
215000, 1556759802, "2019/5/2 1:16:42", 331, 1.62, 64.03
215999, 1556759803, "2019/5/2 1:16:43", 332, 1.62, 64.64
216998, 1556759804, "2019/5/2 1:16:44", 332, 1.62, 64.64
217999, 1556759805, "2019/5/2 1:16:45", 331, 1.62, 64.03
218998, 1556759806, "2019/5/2 1:16:46", 331, 1.62, 64.03
219999, 1556759807, "2019/5/2 1:16:47", 330, 1.61, 63.42
220998, 1556759808, "2019/5/2 1:16:48", 326, 1.59, 60.97
221999, 1556759809, "2019/5/2 1:16:49", 329, 1.61, 62.81
222998, 1556759810, "2019/5/2 1:16:50", 330, 1.61, 63.42
223998, 1556759811, "2019/5/2 1:16:51", 330, 1.61, 63.42
224999, 1556759812, "2019/5/2 1:16:52", 330, 1.61, 63.42
225999, 1556759813, "2019/5/2 1:16:53", 330, 1.61, 63.42
227000, 1556759814, "2019/5/2 1:16:54", 330, 1.61, 63.42
227998, 1556759815, "2019/5/2 1:16:55", 330, 1.61, 63.42
228999, 1556759816, "2019/5/2 1:16:56", 330, 1.61, 63.42
229998, 1556759817, "2019/5/2 1:16:57", 330, 1.61, 63.42
230999, 1556759818, "2019/5/2 1:16:58", 329, 1.61, 62.81
231999, 1556759819, "2019/5/2 1:16:59", 330, 1.61, 63.42
232998, 1556759820, "2019/5/2 1:17:0", 330, 1.61, 63.42
233999, 1556759821, "2019/5/2 1:17:1", 330, 1.61, 63.42
234999, 1556759822, "2019/5/2 1:17:2", 331, 1.62, 64.03
235999, 1556759823, "2019/5/2 1:17:3", 330, 1.61, 63.42
236998, 1556759824, "2019/5/2 1:17:4", 330, 1.61, 63.42
237999, 1556759825, "2019/5/2 1:17:5", 330, 1.61, 63.42
238998, 1556759826, "2019/5/2 1:17:6", 332, 1.62, 64.64
240000, 1556759827, "2019/5/2 1:17:7", 332, 1.62, 64.64
240999, 1556759828, "2019/5/2 1:17:8", 329, 1.61, 62.81
241999, 1556759829, "2019/5/2 1:17:9", 331, 1.62, 64.03
242999, 1556759830, "2019/5/2 1:17:10", 333, 1.63, 65.25
243998, 1556759831, "2019/5/2 1:17:11", 332, 1.62, 64.64
244999, 1556759832, "2019/5/2 1:17:12", 331, 1.62, 64.03
245998, 1556759833, "2019/5/2 1:17:13", 331, 1.62, 64.03
246999, 1556759834, "2019/5/2 1:17:14", 331, 1.62, 64.03
247999, 1556759835, "2019/5/2 1:17:15", 331, 1.62, 64.03
248998, 1556759836, "2019/5/2 1:17:16", 331, 1.62, 64.03
249999, 1556759837, "2019/5/2 1:17:17", 331, 1.62, 64.03
250998, 1556759838, "2019/5/2 1:17:18", 332, 1.62, 64.64
251999, 1556759839, "2019/5/2 1:17:19", 331, 1.62, 64.03
252999, 1556759840, "2019/5/2 1:17:20", 325, 1.59, 60.36
254000, 1556759841, "2019/5/2 1:17:21", 329, 1.61, 62.81
254999, 1556759842, "2019/5/2 1:17:22", 331, 1.62, 64.03
255998, 1556759843, "2019/5/2 1:17:23", 330, 1.61, 63.42
256999, 1556759844, "2019/5/2 1:17:24", 330, 1.61, 63.42
257999, 1556759845, "2019/5/2 1:17:25", 333, 1.63, 65.25
259000, 1556759846, "2019/5/2 1:17:26", 330, 1.61, 63.42
259999, 1556759847, "2019/5/2 1:17:27", 331, 1.62, 64.03
260999, 1556759848, "2019/5/2 1:17:28", 329, 1.61, 62.81
261998, 1556759849, "2019/5/2 1:17:29", 330, 1.61, 63.42
263000, 1556759850, "2019/5/2 1:17:30", 327, 1.60, 61.58
263999, 1556759851, "2019/5/2 1:17:31", 331, 1.62, 64.03
264998, 1556759852, "2019/5/2 1:17:32", 333, 1.63, 65.25
265999, 1556759853, "2019/5/2 1:17:33", 332, 1.62, 64.64
266998, 1556759854, "2019/5/2 1:17:34", 330, 1.61, 63.42
267999, 1556759855, "2019/5/2 1:17:35", 331, 1.62, 64.03
268999, 1556759856, "2019/5/2 1:17:36", 331, 1.62, 64.03
270000, 1556759857, "2019/5/2 1:17:37", 332, 1.62, 64.64
270999, 1556759858, "2019/5/2 1:17:38", 334, 1.63, 65.86
272000, 1556759859, "2019/5/2 1:17:39", 331, 1.62, 64.03
272999, 1556759860, "2019/5/2 1:17:40", 332, 1.62, 64.64
273999, 1556759861, "2019/5/2 1:17:41", 331, 1.62, 64.03
274999, 1556759862, "2019/5/2 1:17:42", 331, 1.62, 64.03
276000, 1556759863, "2019/5/2 1:17:43", 332, 1.62, 64.64
276999, 1556759864, "2019/5/2 1:17:44", 331, 1.62, 64.03
277999, 1556759865, "2019/5/2 1:17:45", 331, 1.62, 64.03
278999, 1556759866, "2019/5/2 1:17:46", 331, 1.62, 64.03
280000, 1556759867, "2019/5/2 1:17:47", 332, 1.62, 64.64
280999, 1556759868, "2019/5/2 1:17:48", 331, 1.62, 64.03
281999, 1556759869, "2019/5/2 1:17:49", 332, 1.62, 64.64
282999, 1556759870, "2019/5/2 1:17:50", 331, 1.62, 64.03
284000, 1556759871, "2019/5/2 1:17:51", 332, 1.62, 64.64
284999, 1556759872, "2019/5/2 1:17:52", 332, 1.62, 64.64
286000, 1556759873, "2019/5/2 1:17:53", 331, 1.62, 64.03
286999, 1556759874, "2019/5/2 1:17:54", 331, 1.62, 64.03
287998, 1556759875, "2019/5/2 1:17:55", 331, 1.62, 64.03
288999, 1556759876, "2019/5/2 1:17:56", 332, 1.62, 64.64
289998, 1556759877, "2019/5/2 1:17:57", 331, 1.62, 64.03
290999, 1556759878, "2019/5/2 1:17:58", 331, 1.62, 64.03
291998, 1556759879, "2019/5/2 1:17:59", 331, 1.62, 64.03
292999, 1556759880, "2019/5/2 1:18:0", 331, 1.62, 64.03
293998, 1556759881, "2019/5/2 1:18:1", 331, 1.62, 64.03
295000, 1556759882, "2019/5/2 1:18:2", 331, 1.62, 64.03
295999, 1556759883, "2019/5/2 1:18:3", 331, 1.62, 64.03
296999, 1556759884, "2019/5/2 1:18:4", 331, 1.62, 64.03
297999, 1556759885, "2019/5/2 1:18:5", 331, 1.62, 64.03
298999, 1556759886, "2019/5/2 1:18:6", 331, 1.62, 64.03
299999, 1556759887, "2019/5/2 1:18:7", 332, 1.62, 64.64
300998, 1556759888, "2019/5/2 1:18:8", 332, 1.62, 64.64
301999, 1556759889, "2019/5/2 1:18:9", 332, 1.62, 64.64
303000, 1556759890, "2019/5/2 1:18:10", 332, 1.62, 64.64
304000, 1556759891, "2019/5/2 1:18:11", 331, 1.62, 64.03
304999, 1556759892, "2019/5/2 1:18:12", 331, 1.62, 64.03
305999, 1556759893, "2019/5/2 1:18:13", 332, 1.62, 64.64
306999, 1556759894, "2019/5/2 1:18:14", 332, 1.62, 64.64
307999, 1556759895, "2019/5/2 1:18:15", 332, 1.62, 64.64
308999, 1556759896, "2019/5/2 1:18:16", 332, 1.62, 64.64
309999, 1556759897, "2019/5/2 1:18:17", 332, 1.62, 64.64
311000, 1556759898, "2019/5/2 1:18:18", 332, 1.62, 64.64
312000, 1556759899, "2019/5/2 1:18:19", 332, 1.62, 64.64
312999, 1556759900, "2019/5/2 1:18:20", 332, 1.62, 64.64
313999, 1556759901, "2019/5/2 1:18:21", 332, 1.62, 64.64
314998, 1556759902, "2019/5/2 1:18:22", 333, 1.63, 65.25
316000, 1556759903, "2019/5/2 1:18:23", 332, 1.62, 64.64
316999, 1556759904, "2019/5/2 1:18:24", 331, 1.62, 64.03
318000, 1556759905, "2019/5/2 1:18:25", 331, 1.62, 64.03
318999, 1556759906, "2019/5/2 1:18:26", 331, 1.62, 64.03
319998, 1556759907, "2019/5/2 1:18:27", 330, 1.61, 63.42
320998, 1556759908, "2019/5/2 1:18:28", 331, 1.62, 64.03
321999, 1556759909, "2019/5/2 1:18:29", 330, 1.61, 63.42
323000, 1556759910, "2019/5/2 1:18:30", 332, 1.62, 64.64
323999, 1556759911, "2019/5/2 1:18:31", 331, 1.62, 64.03
325000, 1556759912, "2019/5/2 1:18:32", 331, 1.62, 64.03
325998, 1556759913, "2019/5/2 1:18:33", 331, 1.62, 64.03
326999, 1556759914, "2019/5/2 1:18:34", 332, 1.62, 64.64
327999, 1556759915, "2019/5/2 1:18:35", 333, 1.63, 65.25
328998, 1556759916, "2019/5/2 1:18:36", 332, 1.62, 64.64
329998, 1556759917, "2019/5/2 1:18:37", 332, 1.62, 64.64
330999, 1556759918, "2019/5/2 1:18:38", 332, 1.62, 64.64
332000, 1556759919, "2019/5/2 1:18:39", 332, 1.62, 64.64
332999, 1556759920, "2019/5/2 1:18:40", 331, 1.62, 64.03
333999, 1556759921, "2019/5/2 1:18:41", 331, 1.62, 64.03
334998, 1556759922, "2019/5/2 1:18:42", 332, 1.62, 64.64
336000, 1556759923, "2019/5/2 1:18:43", 331, 1.62, 64.03
337000, 1556759924, "2019/5/2 1:18:44", 333, 1.63, 65.25
337999, 1556759925, "2019/5/2 1:18:45", 332, 1.62, 64.64
338999, 1556759926, "2019/5/2 1:18:46", 331, 1.62, 64.03
339999, 1556759927, "2019/5/2 1:18:47", 331, 1.62, 64.03
341000, 1556759928, "2019/5/2 1:18:48", 331, 1.62, 64.03
341999, 1556759929, "2019/5/2 1:18:49", 331, 1.62, 64.03
343000, 1556759930, "2019/5/2 1:18:50", 331, 1.62, 64.03
344000, 1556759931, "2019/5/2 1:18:51", 333, 1.63, 65.25
344998, 1556759932, "2019/5/2 1:18:52", 331, 1.62, 64.03
345999, 1556759933, "2019/5/2 1:18:53", 331, 1.62, 64.03
346999, 1556759934, "2019/5/2 1:18:54", 331, 1.62, 64.03
348000, 1556759935, "2019/5/2 1:18:55", 332, 1.62, 64.64
348999, 1556759936, "2019/5/2 1:18:56", 331, 1.62, 64.03
350000, 1556759937, "2019/5/2 1:18:57", 331, 1.62, 64.03
350999, 1556759938, "2019/5/2 1:18:58", 332, 1.62, 64.64
351998, 1556759939, "2019/5/2 1:18:59", 327, 1.60, 61.58
352999, 1556759940, "2019/5/2 1:19:0", 331, 1.62, 64.03
353998, 1556759941, "2019/5/2 1:19:1", 331, 1.62, 64.03
354999, 1556759942, "2019/5/2 1:19:2", 330, 1.61, 63.42
355998, 1556759943, "2019/5/2 1:19:3", 331, 1.62, 64.03
357000, 1556759944, "2019/5/2 1:19:4", 331, 1.62, 64.03
357999, 1556759945, "2019/5/2 1:19:5", 331, 1.62, 64.03
358999, 1556759946, "2019/5/2 1:19:6", 331, 1.62, 64.03
359999, 1556759947, "2019/5/2 1:19:7", 331, 1.62, 64.03
360998, 1556759948, "2019/5/2 1:19:8", 331, 1.62, 64.03
361999, 1556759949, "2019/5/2 1:19:9", 331, 1.62, 64.03
362998, 1556759950, "2019/5/2 1:19:10", 331, 1.62, 64.03
363999, 1556759951, "2019/5/2 1:19:11", 331, 1.62, 64.03
364999, 1556759952, "2019/5/2 1:19:12", 332, 1.62, 64.64
366000, 1556759953, "2019/5/2 1:19:13", 331, 1.62, 64.03
366999, 1556759954, "2019/5/2 1:19:14", 331, 1.62, 64.03
367998, 1556759955, "2019/5/2 1:19:15", 331, 1.62, 64.03
368999, 1556759956, "2019/5/2 1:19:16", 331, 1.62, 64.03
369999, 1556759957, "2019/5/2 1:19:17", 331, 1.62, 64.03
371000, 1556759958, "2019/5/2 1:19:18", 332, 1.62, 64.64
371999, 1556759959, "2019/5/2 1:19:19", 331, 1.62, 64.03
373000, 1556759960, "2019/5/2 1:19:20", 332, 1.62, 64.64
373998, 1556759961, "2019/5/2 1:19:21", 332, 1.62, 64.64
374999, 1556759962, "2019/5/2 1:19:22", 330, 1.61, 63.42
376000, 1556759963, "2019/5/2 1:19:23", 332, 1.62, 64.64
376999, 1556759964, "2019/5/2 1:19:24", 332, 1.62, 64.64
377999, 1556759965, "2019/5/2 1:19:25", 331, 1.62, 64.03
378999, 1556759966, "2019/5/2 1:19:26", 331, 1.62, 64.03
380000, 1556759967, "2019/5/2 1:19:27", 332, 1.62, 64.64
380999, 1556759968, "2019/5/2 1:19:28", 333, 1.63, 65.25
382000, 1556759969, "2019/5/2 1:19:29", 331, 1.62, 64.03
382999, 1556759970, "2019/5/2 1:19:30", 332, 1.62, 64.64
383998, 1556759971, "2019/5/2 1:19:31", 331, 1.62, 64.03
385000, 1556759972, "2019/5/2 1:19:32", 331, 1.62, 64.03
385999, 1556759973, "2019/5/2 1:19:33", 332, 1.62, 64.64
387000, 1556759974, "2019/5/2 1:19:34", 331, 1.62, 64.03
387998, 1556759975, "2019/5/2 1:19:35", 331, 1.62, 64.03
388999, 1556759976, "2019/5/2 1:19:36", 327, 1.60, 61.58
389998, 1556759977, "2019/5/2 1:19:37", 331, 1.62, 64.03
391000, 1556759978, "2019/5/2 1:19:38", 330, 1.61, 63.42
391999, 1556759979, "2019/5/2 1:19:39", 331, 1.62, 64.03
392999, 1556759980, "2019/5/2 1:19:40", 331, 1.62, 64.03
394000, 1556759981, "2019/5/2 1:19:41", 331, 1.62, 64.03
394999, 1556759982, "2019/5/2 1:19:42", 331, 1.62, 64.03
396000, 1556759983, "2019/5/2 1:19:43", 332, 1.62, 64.64
396999, 1556759984, "2019/5/2 1:19:44", 332, 1.62, 64.64
397999, 1556759985, "2019/5/2 1:19:45", 332, 1.62, 64.64
398999, 1556759986, "2019/5/2 1:19:46", 332, 1.62, 64.64
400000, 1556759987, "2019/5/2 1:19:47", 332, 1.62, 64.64
400999, 1556759988, "2019/5/2 1:19:48", 331, 1.62, 64.03
401999, 1556759989, "2019/5/2 1:19:49", 331, 1.62, 64.03
402999, 1556759990, "2019/5/2 1:19:50", 331, 1.62, 64.03
403998, 1556759991, "2019/5/2 1:19:51", 331, 1.62, 64.03
404999, 1556759992, "2019/5/2 1:19:52", 332, 1.62, 64.64
405999, 1556759993, "2019/5/2 1:19:53", 332, 1.62, 64.64
407000, 1556759994, "2019/5/2 1:19:54", 331, 1.62, 64.03
408000, 1556759995, "2019/5/2 1:19:55", 331, 1.62, 64.03
408998, 1556759996, "2019/5/2 1:19:56", 331, 1.62, 64.03
409999, 1556759997, "2019/5/2 1:19:57", 331, 1.62, 64.03
410999, 1556759998, "2019/5/2 1:19:58", 332, 1.62, 64.64
411999, 1556759999, "2019/5/2 1:19:59", 331, 1.62, 64.03
412999, 1556760000, "2019/5/2 1:20:0", 332, 1.62, 64.64
414000, 1556760001, "2019/5/2 1:20:1", 332, 1.62, 64.64
414998, 1556760002, "2019/5/2 1:20:2", 332, 1.62, 64.64
416000, 1556760003, "2019/5/2 1:20:3", 331, 1.62, 64.03